Date String (YYYY-MM-DD hh:mm:ss) UTC,Instrument flags,Ambient pressure (hPa),Sample flow (lpm),Bypass flow (lpm),Sample temperature (°C),Ambient temperature (°C),ASC tube jacket temperature (°C),LED temperature (°C),Box temperature (°C),Sample RH (%),Span deviation,Mass concentration (μg/m³),Mass concentration (μg/m³),Mass concentration (μg/m³)
DateTimeUTC,F1_M11,P_M11,Q1_M11,Q2_M11,T1_M11,T2_M11,T3_M11,T4_M11,T5_M11,U1_M11,ZSPAN_M11,X0_M11,X2_M11,X1_M11
2022-11-08 20:00:00,,0821.1,5.00,0.00,27.0,26.1,00.0,35.6,29.0,13.5,-001.0,0010.07,0003.71,0003.00
2022-11-08 20:01:00,,0821.1,5.00,0.00,27.0,26.1,00.0,35.6,29.0,13.6,-001.0,0009.90,0003.66,0002.95
2022-11-08 20:02:00,,0821.1,5.00,0.00,27.1,26.1,00.0,35.7,29.0,13.4,-001.5,0009.81,0003.60,0002.90
2022-11-08 20:03:00,,0821.2,5.00,0.00,27.1,26.1,00.0,35.7,29.0,13.0,-000.6,0009.78,0003.58,0002.88
2022-11-08 20:04:00,,0821.1,5.01,0.00,27.1,26.2,00.0,35.7,29.1,13.0,-000.1,0009.32,0003.58,0002.85
2022-11-08 20:05:00,,0821.2,5.00,0.00,27.1,26.2,00.0,35.7,29.1,13.1,-000.4,0009.13,0003.57,0002.80
2022-11-08 20:06:00,,0821.1,4.99,0.00,27.2,26.2,00.0,35.8,29.1,13.0,0000.2,0009.00,0003.58,0002.75
2022-11-08 20:07:00,,0821.1,4.99,0.00,27.2,26.2,00.0,35.8,29.2,13.1,0000.1,0009.12,0003.54,0002.72
2022-11-08 20:08:00,,0821.1,5.00,0.00,27.2,26.3,00.0,35.8,29.2,13.2,0000.0,0008.80,0003.53,0002.73
2022-11-08 20:09:00,,0821.1,5.02,0.00,27.2,26.3,00.0,35.8,29.2,13.7,0000.0,0008.30,0003.58,0002.76
2022-11-08 20:10:00,,0821.1,4.99,0.00,27.3,26.3,00.0,35.9,29.2,13.6,0000.0,0008.20,0003.58,0002.78
2022-11-08 20:11:00,,0821.1,4.99,0.00,27.3,26.3,00.0,35.9,29.2,13.9,0001.3,0008.48,0003.58,0002.82
2022-11-08 20:12:00,,0821.0,5.02,0.00,27.3,26.4,00.0,35.9,29.3,13.7,0001.4,0009.02,0003.62,0002.87
2022-11-08 20:13:00,,0821.0,4.99,0.00,27.3,26.4,00.0,35.9,29.3,13.6,0001.2,0009.10,0003.63,0002.92
2022-11-08 20:14:00,,0821.0,4.98,0.00,27.3,26.4,00.0,35.9,29.3,13.7,0000.4,0009.11,0003.66,0002.98
2022-11-08 20:15:00,,0821.0,5.01,0.00,27.4,26.4,00.0,36.0,29.3,13.8,0000.7,0008.91,0003.68,0003.05
2022-11-08 20:16:00,,0821.0,5.00,0.00,27.4,26.4,00.0,36.0,29.3,14.1,0000.4,0008.90,0003.72,0003.13
2022-11-08 20:17:00,,0821.1,4.99,0.00,27.4,26.5,00.0,36.0,29.4,14.2,0000.5,0008.88,0003.75,0003.20
2022-11-08 20:18:00,,0821.1,4.99,0.00,27.4,26.5,00.0,36.0,29.4,14.5,-000.2,0008.81,0003.84,0003.28
2022-11-08 20:19:00,,0821.0,5.00,0.00,27.5,26.5,00.0,36.1,29.4,13.8,-000.6,0008.98,0003.94,0003.34
2022-11-08 20:20:00,,0821.0,5.01,0.00,27.5,26.5,00.0,36.1,29.4,13.6,-000.8,0009.06,0003.96,0003.35
2022-11-08 20:21:00,,0821.0,4.99,0.00,27.5,26.5,00.0,36.1,29.5,13.4,-001.4,0009.03,0003.96,0003.37
2022-11-08 20:22:00,,0821.0,5.00,0.00,27.5,26.6,00.0,36.1,29.5,12.9,-001.8,0009.09,0003.95,0003.36
2022-11-08 20:23:00,,0821.0,5.01,0.00,27.6,26.6,00.0,36.1,29.5,13.1,-002.1,0009.06,0003.95,0003.35
2022-11-08 20:24:00,,0821.0,4.99,0.00,27.6,26.6,00.0,36.2,29.5,13.0,-002.1,0009.43,0003.96,0003.34
2022-11-08 20:25:00,,0821.0,5.02,0.00,27.6,26.7,00.0,36.2,29.5,13.1,-001.0,0009.58,0003.97,0003.33
2022-11-08 20:26:00,,0821.0,5.00,0.00,27.6,26.7,00.0,36.2,29.6,13.7,-001.0,0009.66,0004.03,0003.34
2022-11-08 20:27:00,,0821.0,4.99,0.00,27.7,26.7,00.0,36.2,29.6,13.6,-000.0,0009.63,0004.09,0003.35
2022-11-08 20:28:00,,0821.0,5.00,0.00,27.7,26.7,00.0,36.3,29.6,13.8,0000.3,0009.99,0004.11,0003.33
2022-11-08 20:29:00,,0820.9,5.01,0.00,27.7,26.8,00.0,36.3,29.7,13.7,0000.5,0010.90,0004.10,0003.32
2022-11-08 20:30:00,,0820.9,4.99,0.00,27.7,26.8,00.0,36.3,29.7,13.7,0001.1,0011.72,0004.12,0003.33
2022-11-08 20:31:00,,0820.9,5.01,0.00,27.7,26.8,00.0,36.3,29.7,13.7,0001.4,0011.97,0004.14,0003.36
2022-11-08 20:32:00,,0821.0,5.01,0.00,27.8,26.8,00.0,36.3,29.7,13.8,0001.1,0012.16,0004.19,0003.40
2022-11-08 20:33:00,,0821.0,4.99,0.00,27.8,26.8,00.0,36.4,29.7,13.7,0001.1,0012.42,0004.26,0003.45
2022-11-08 20:34:00,,0821.0,4.99,0.00,27.8,26.8,00.0,36.4,29.7,13.7,0001.5,0012.03,0004.33,0003.50
2022-11-08 20:35:00,,0821.0,5.02,0.00,27.8,26.9,00.0,36.4,29.8,13.6,0001.8,0011.66,0004.38,0003.53
2022-11-08 20:36:00,,0821.0,5.00,0.00,27.8,26.9,00.0,36.4,29.8,13.5,0001.6,0011.56,0004.40,0003.55
2022-11-08 20:37:00,,0821.0,4.99,0.00,27.9,26.9,00.0,36.5,29.8,13.3,0001.7,0011.48,0004.34,0003.54
2022-11-08 20:38:00,,0821.0,5.02,0.00,27.9,26.9,00.0,36.5,29.8,13.5,0001.5,0012.10,0004.30,0003.53
2022-11-08 20:39:00,,0821.0,5.00,0.00,27.9,26.9,00.0,36.5,29.9,13.4,0000.6,0012.98,0004.28,0003.53
2022-11-08 20:40:00,,0821.0,5.00,0.00,27.9,26.9,00.0,36.5,29.9,13.4,-000.2,0012.45,0004.25,0003.53
2022-11-08 20:41:00,,0821.0,5.00,0.00,27.9,27.0,00.0,36.6,29.8,13.4,-000.4,0011.98,0004.22,0003.52
2022-11-08 20:42:00,,0821.0,5.01,0.00,27.9,27.0,00.0,36.6,29.9,13.3,0000.6,0011.53,0004.14,0003.51
2022-11-08 20:43:00,,0821.0,4.99,0.00,27.9,27.0,00.0,36.6,29.9,13.2,0000.2,0012.09,0004.14,0003.49
2022-11-08 20:44:00,,0820.9,5.02,0.00,28.0,26.9,00.0,36.6,29.9,13.1,0000.8,0012.32,0004.10,0003.49
2022-11-08 20:45:00,,0820.9,4.99,0.00,28.0,26.9,00.0,36.6,29.8,13.1,0000.1,0012.64,0004.07,0003.47
2022-11-08 20:46:00,,0820.9,4.99,0.00,28.0,26.9,00.0,36.6,29.9,13.1,-000.3,0012.59,0004.04,0003.47
2022-11-08 20:47:00,,0820.9,5.01,0.00,28.0,26.9,00.0,36.7,29.9,13.2,-000.3,0012.47,0004.00,0003.46
2022-11-08 20:48:00,,0820.9,4.99,0.00,28.0,26.9,00.0,36.7,29.9,13.2,-000.7,0012.46,0004.01,0003.48
2022-11-08 20:49:00,,0820.9,4.98,0.00,28.0,27.0,00.0,36.7,29.9,13.1,-001.2,0012.16,0004.02,0003.50
2022-11-08 20:50:00,,0820.9,5.00,0.00,28.0,27.0,00.0,36.7,29.9,13.2,-000.9,0011.64,0004.03,0003.50
2022-11-08 20:51:00,,0821.0,5.00,0.00,28.0,27.0,00.0,36.7,29.9,12.8,-000.1,0010.78,0004.09,0003.50
2022-11-08 20:52:00,,0821.0,4.99,0.00,28.0,27.1,00.0,36.7,29.9,12.8,-000.4,0010.82,0004.10,0003.51
2022-11-08 20:53:00,,0820.9,5.01,0.00,28.1,27.1,00.0,36.7,29.9,12.9,-001.0,0010.78,0004.12,0003.50
2022-11-08 20:54:00,,0820.9,5.00,0.00,28.1,27.1,00.0,36.7,30.0,12.8,-000.0,0010.42,0004.12,0003.50
2022-11-08 20:55:00,,0820.9,4.99,0.00,28.1,27.1,00.0,36.8,30.0,12.9,-000.2,0009.73,0004.10,0003.49
2022-11-08 20:56:00,,0820.9,5.00,0.00,28.1,27.2,00.0,36.8,30.1,12.7,-000.6,0008.99,0004.12,0003.49
2022-11-08 20:57:00,,0820.9,5.01,0.00,28.2,27.2,00.0,36.8,30.1,12.7,-000.5,0009.17,0004.13,0003.50
2022-11-08 20:58:00,,0820.9,5.00,0.00,28.2,27.2,00.0,36.8,30.1,12.7,-000.4,0009.57,0004.19,0003.52
2022-11-08 20:59:00,,0820.9,4.99,0.00,28.2,27.3,00.0,36.8,30.1,12.6,-000.2,0010.39,0004.20,0003.51
